EN

Hourly Weather Kyzylagash

Today, 30 July, Friday

Time Temperature Precipitation Wind Pressure Humidity
00:00 +21°C° 0 mm 2 mps 713 mmHg 29%
01:00 +21°C° 0 mm 2 mps 713 mmHg 29%
02:00 +20°C° 0 mm 2 mps 713 mmHg 30%
03:00 +20°C° 0 mm 2 mps 714 mmHg 32%
04:00 +20°C° 0 mm 2 mps 714 mmHg 33%
05:00 +21°C° 0 mm 2 mps 715 mmHg 32%
06:00 +21°C° 0.2 mm 3 mps 716 mmHg 36%
07:00 +20°C° 0.2 mm 3 mps 717 mmHg 41%
08:00 +20°C° 0.2 mm 3 mps 717 mmHg 45%
09:00 +24°C° 0.2 mm 3 mps 717 mmHg 41%
10:00 +26°C° 0.2 mm 4 mps 717 mmHg 37%
11:00 +28°C° 0.2 mm 4 mps 717 mmHg 33%
12:00 +29°C° 0 mm 4 mps 717 mmHg 30%
13:00 +30°C° 0 mm 4 mps 717 mmHg 28%
14:00 +32°C° 0 mm 4 mps 717 mmHg 25%
15:00 +32°C° 0 mm 4 mps 717 mmHg 25%
16:00 +30°C° 0 mm 4 mps 717 mmHg 25%
17:00 +30°C° 0 mm 4 mps 717 mmHg 26%
18:00 +28°C° 0 mm 3 mps 717 mmHg 29%
19:00 +27°C° 0 mm 3 mps 717 mmHg 32%
20:00 +25°C° 0 mm 3 mps 717 mmHg 35%
21:00 +24°C° 0 mm 2 mps 717 mmHg 38%
22:00 +24°C° 0 mm 2 mps 717 mmHg 40%
23:00 +23°C° 0 mm 2 mps 717 mmHg 43%

Tomorrow, 31 July, Saturday

Time Temperature Precipitation Wind Pressure Humidity
00:00 +21°C° 0 mm 2 mps 717 mmHg 44%
01:00 +20°C° 0 mm 2 mps 717 mmHg 45%
02:00 +20°C° 0 mm 2 mps 717 mmHg 46%
03:00 +19°C° 0 mm 2 mps 717 mmHg 47%
04:00 +19°C° 0 mm 2 mps 718 mmHg 48%
05:00 +19°C° 0 mm 2 mps 718 mmHg 49%
06:00 +23°C° 0 mm 2 mps 718 mmHg 42%
07:00 +26°C° 0 mm 3 mps 718 mmHg 35%
08:00 +29°C° 0 mm 3 mps 719 mmHg 28%
09:00 +30°C° 0 mm 4 mps 718 mmHg 25%
10:00 +32°C° 0 mm 5 mps 718 mmHg 21%
11:00 +34°C° 0 mm 6 mps 718 mmHg 18%
12:00 +34°C° 0 mm 6 mps 718 mmHg 17%
13:00 +35°C° 0 mm 7 mps 717 mmHg 16%
14:00 +35°C° 0 mm 7 mps 717 mmHg 15%
15:00 +35°C° 0 mm 7 mps 717 mmHg 15%
16:00 +34°C° 0 mm 7 mps 717 mmHg 16%
17:00 +34°C° 0 mm 8 mps 717 mmHg 16%
18:00 +32°C° 0 mm 7 mps 717 mmHg 18%
19:00 +28°C° 0 mm 5 mps 717 mmHg 21%
20:00 +26°C° 0 mm 4 mps 717 mmHg 24%
21:00 +25°C° 0 mm 4 mps 717 mmHg 25%
22:00 +23°C° 0 mm 4 mps 717 mmHg 26%
23:00 +22°C° 0 mm 3 mps 716 mmHg 27%

Day after tomorrow, 1 August, Sunday

Time Temperature Precipitation Wind Pressure Humidity
00:00 +22°C° 0 mm 4 mps 716 mmHg 27%
01:00 +21°C° 0 mm 4 mps 716 mmHg 27%
02:00 +21°C° 0 mm 4 mps 716 mmHg 27%
03:00 +21°C° 0 mm 4 mps 716 mmHg 27%
04:00 +21°C° 0 mm 3 mps 716 mmHg 26%
05:00 +20°C° 0 mm 3 mps 716 mmHg 26%
06:00 +23°C° 0 mm 4 mps 716 mmHg 22%
07:00 +27°C° 0 mm 5 mps 716 mmHg 18%
08:00 +30°C° 0 mm 5 mps 716 mmHg 14%
09:00 +32°C° 0 mm 5 mps 716 mmHg 12%
10:00 +34°C° 0 mm 5 mps 716 mmHg 11%
11:00 +36°C° 0 mm 5 mps 715 mmHg 9%
12:00 +36°C° 0 mm 5 mps 715 mmHg 8%
13:00 +37°C° 0 mm 5 mps 714 mmHg 8%
14:00 +39°C° 0 mm 6 mps 714 mmHg 7%
15:00 +39°C° 0 mm 6 mps 714 mmHg 6%
16:00 +38°C° 0 mm 6 mps 713 mmHg 6%
17:00 +38°C° 0 mm 6 mps 713 mmHg 6%
18:00 +34°C° 0 mm 6 mps 713 mmHg 8%
19:00 +30°C° 0 mm 5 mps 713 mmHg 9%
20:00 +27°C° 0 mm 4 mps 713 mmHg 11%
21:00 +26°C° 0 mm 3 mps 713 mmHg 12%
22:00 +25°C° 0 mm 3 mps 713 mmHg 13%
23:00 +24°C° 0 mm 2 mps 713 mmHg 14%

2 August, Monday

Time Temperature Precipitation Wind Pressure Humidity
00:00 +23°C° 0 mm 2 mps 713 mmHg 15%
01:00 +23°C° 0 mm 2 mps 712 mmHg 16%
02:00 +23°C° 0 mm 2 mps 712 mmHg 18%
03:00 +23°C° 0 mm 2 mps 712 mmHg 18%
04:00 +23°C° 0 mm 2 mps 713 mmHg 19%
05:00 +23°C° 0 mm 2 mps 713 mmHg 20%
06:00 +25°C° 0 mm 2 mps 713 mmHg 18%
07:00 +28°C° 0 mm 2 mps 713 mmHg 16%
08:00 +31°C° 0 mm 3 mps 714 mmHg 14%
09:00 +33°C° 0 mm 3 mps 713 mmHg 13%
10:00 +35°C° 0 mm 3 mps 713 mmHg 12%
11:00 +37°C° 0 mm 4 mps 713 mmHg 10%
12:00 +37°C° 0 mm 4 mps 713 mmHg 10%
13:00 +38°C° 0 mm 4 mps 713 mmHg 10%
14:00 +40°C° 0 mm 4 mps 713 mmHg 10%
15:00 +38°C° 0 mm 4 mps 713 mmHg 10%
16:00 +39°C° 0 mm 5 mps 713 mmHg 10%
17:00 +37°C° 0 mm 5 mps 713 mmHg 11%
18:00 +35°C° 0 mm 4 mps 713 mmHg 13%
19:00 +31°C° 0 mm 3 mps 713 mmHg 16%
20:00 +29°C° 0 mm 2 mps 713 mmHg 18%
21:00 +28°C° 0 mm 2 mps 714 mmHg 19%
22:00 +27°C° 0 mm 2 mps 714 mmHg 21%
23:00 +26°C° 0 mm 2 mps 714 mmHg 22%

3 August, Tuesday

Time Temperature Precipitation Wind Pressure Humidity
00:00 +25°C° 0 mm 2 mps 714 mmHg 23%
01:00 +25°C° 0 mm 2 mps 714 mmHg 23%
02:00 +24°C° 0 mm 2 mps 714 mmHg 24%
03:00 +25°C° 0 mm 2 mps 714 mmHg 24%
04:00 +25°C° 0 mm 2 mps 714 mmHg 24%
05:00 +25°C° 0 mm 2 mps 714 mmHg 23%
06:00 +28°C° 0 mm 2 mps 715 mmHg 21%
07:00 +31°C° 0 mm 1 mps 715 mmHg 18%
08:00 +34°C° 0 mm 1 mps 715 mmHg 15%
09:00 +36°C° 0 mm 2 mps 715 mmHg 13%
10:00 +38°C° 0 mm 3 mps 715 mmHg 12%
11:00 +39°C° 0 mm 3 mps 715 mmHg 11%
12:00 +41°C° 0 mm 4 mps 714 mmHg 11%
13:00 +41°C° 0 mm 4 mps 714 mmHg 10%
14:00 +42°C° 0 mm 5 mps 714 mmHg 10%
15:00 +41°C° 0 mm 6 mps 714 mmHg 11%
16:00 +41°C° 0 mm 6 mps 714 mmHg 12%
17:00 +40°C° 0 mm 7 mps 714 mmHg 13%
18:00 +36°C° 0 mm 5 mps 714 mmHg 16%
19:00 +33°C° 0 mm 4 mps 714 mmHg 19%
20:00 +30°C° 0 mm 2 mps 714 mmHg 23%
21:00 +29°C° 0 mm 2 mps 714 mmHg 24%
22:00 +28°C° 0 mm 2 mps 714 mmHg 26%
23:00 +27°C° 0 mm 1 mps 714 mmHg 28%

4 August, Wednesday

Time Temperature Precipitation Wind Pressure Humidity
00:00 +27°C° 0 mm 1 mps 713 mmHg 28%
01:00 +26°C° 0 mm 1 mps 713 mmHg 29%
02:00 +26°C° 0 mm 1 mps 713 mmHg 29%
03:00 +26°C° 0 mm 2 mps 713 mmHg 30%
04:00 +25°C° 0 mm 2 mps 714 mmHg 30%
05:00 +25°C° 0 mm 2 mps 714 mmHg 31%
06:00 +28°C° 0 mm 2 mps 714 mmHg 28%
07:00 +30°C° 0 mm 3 mps 715 mmHg 24%
08:00 +33°C° 0 mm 3 mps 715 mmHg 21%
09:00 +35°C° 0 mm 4 mps 715 mmHg 20%
10:00 +36°C° 0 mm 5 mps 715 mmHg 19%
11:00 +38°C° 0 mm 6 mps 715 mmHg 18%
12:00 +38°C° 0 mm 6 mps 715 mmHg 17%
13:00 +39°C° 0 mm 6 mps 715 mmHg 16%
14:00 +39°C° 0 mm 6 mps 715 mmHg 15%
15:00 +38°C° 0 mm 6 mps 715 mmHg 16%
16:00 +38°C° 0 mm 6 mps 715 mmHg 16%
17:00 +36°C° 0 mm 6 mps 715 mmHg 17%
18:00 +34°C° 0 mm 5 mps 715 mmHg 20%
19:00 +30°C° 0 mm 4 mps 715 mmHg 24%
20:00 +28°C° 0 mm 3 mps 716 mmHg 28%
21:00 +27°C° 0 mm 3 mps 716 mmHg 30%
22:00 +26°C° 0 mm 3 mps 715 mmHg 31%
23:00 +25°C° 0 mm 4 mps 715 mmHg 32%
Show more